Location: Leuk
(46.3174°N, 7.6341°E)
Time: 19:37:06
(UTC+00:00)

deb Delta 139 - Visible Passes

Search period start: 19 September 2021 00:00
Search period end: 29 September 2021 00:00
Orbit: 688 x 829 km, 98.4° (Epoch: 19 September)

Date Brightness Start Highest point End Pass type
(mag) Time Alt. Az. Time Alt. Az. Time Alt. Az.
19 Sep ? 02:32:59 10° NE 02:36:43 22° E 02:40:29 10° SE visible
19 Sep ? 04:11:13 10° N 04:15:48 48° WNW 04:20:31 10° SW visible
20 Sep ? 03:32:24 10° NNE 03:37:13 77° ESE 03:42:10 10° S visible
21 Sep ? 02:54:02 10° NNE 02:58:26 34° E 03:02:56 10° SSE visible
21 Sep ? 04:33:02 10° N 04:37:15 31° WNW 04:41:34 10° SW visible
22 Sep ? 02:16:32 10° NE 02:19:27 16° E 02:22:25 10° SE visible
22 Sep ? 03:53:58 10° N 03:58:46 68° WNW 04:03:43 10° SSW visible
23 Sep ? 03:15:20 10° NNE 03:20:06 54° E 03:25:00 10° S visible
24 Sep ? 02:37:15 10° NE 02:41:14 25° E 02:45:19 10° SSE visible
24 Sep ? 04:15:40 10° N 04:20:16 44° WNW 04:25:00 10° SW visible
25 Sep ? 02:00:54 10° ENE 02:02:09 11° E 02:03:25 10° ESE visible
25 Sep ? 03:36:48 10° NNE 03:41:42 85° ESE 03:46:46 10° SSW visible
26 Sep ? 02:58:22 10° NNE 03:02:57 38° E 03:07:40 10° SSE visible
26 Sep ? 04:37:31 10° N 04:41:42 29° WNW 04:46:00 10° SW visible
27 Sep ? 02:20:40 10° NE 02:24:00 18° E 02:27:23 10° SE visible
27 Sep ? 03:58:23 10° N 04:03:15 62° WNW 04:08:15 10° SSW visible
28 Sep ? 03:19:42 10° NNE 03:24:36 60° ESE 03:29:39 10° S visible
